Torna al catalogo

COSMOS 1275 DEB

AttivoPO
NORAD 42220·DEBRIS·🇷🇺 Russia

Lanciato Jun 4, 1981 da Plesetsk Cosmodrome

Loading…

Prossimi Passaggi (prossime 24 ore)

TLE

AggiornatoSource: Space-Track

Epoca: Sep 13, 2026, 03:55 UTC

1 42220U 81053UL  26256.16385627  .00006999  00000-0  14160-2 0  9993
2 42220  82.9056 217.2291 0019576 358.3115   1.8019 14.61105299668726

Traccia COSMOS 1275 DEB in tempo reale con AllMySat

Download on the App Store